Kodiak, AK

3:01 PM AKDT on July 26, 2017 (GMT -0800)
Kodiak

Weather History for PADQ - July, 2012

Change the Weather History Date:

Saturday, July 14, 2012

  Actual Average Record
Temperature  
Mean Temperature 50 °F 54 °F  
Max Temperature 51 °F 60 °F 80 °F (2003)
Min Temperature 48 °F 49 °F 35 °F (1927)
Degree Days  
Heating Degree Days 15 11  
Month to date heating degree days 204 162  
Since 1 June heating degree days 633 623  
Since 1 July heating degree days 204 162  
Cooling Degree Days 0 0  
Month to date cooling degree days 0 0  
Year to date cooling degree days 0 0  
Since 1 June cooling degree days 0 0  
Growing Degree Days 1 (Base 50)    
Moisture  
Dew Point 46 °F    
Average Humidity 0    
Maximum Humidity 0    
Minimum Humidity 0    
Precipitation  
Precipitation 0.08 in 0.16 in 1.36 in (2002)
Month to date precipitation 2.99 2.31  
Year to date precipitation 29.43 39.61  
Snow  
Snow 0.00 in 0.00 in - ()
Month to date snowfall 0.0 0.0  
Since 1 June snowfall 0.0 0.0  
Since 1 July snowfall 0.0 0.0  
Snow Depth 0.00 in    
Sea Level Pressure  
Sea Level Pressure 30.13 in    
Wind  
Wind Speed 11 mph (SE)    
Max Wind Speed 22 mph    
Max Gust Speed 25 mph    
Visibility 8 miles    
Events Rain    
T = Trace of Precipitation, MM = Missing Value Source: NWS Daily Summary

Daily Weather History Graph

Daily Weather History Graph

Search for Another Location

Airport or City:

Trip Planner

Search our weather history database for the weather conditions in past years. The results will help you decide how hot, cold, wet, or windy it might be!

Date:

Astronomy

Jul. 14, 2012 Rise Set
Actual Time 5:32 AM AKDT 10:58 PM AKDT
Civil Twilight 4:28 AM AKDT 12:01 AM AKDT
Nautical Twilight 2:48 AM AKDT 1:43 AM AKDT
Astronomical Twilight Sun does not set Sun does not set
Moon 2:01 AM AKDT (7/14) 7:30 PM AKDT (7/14)
Length of Visible Light 19h 32m
Length of Day
17h 26m
Waning Crescent, 17% of the Moon is Illuminated
Jul 14
Waning Crescent
Jul 18
New
Jul 26
First Quarter
Aug 1
Full
Aug 9
Last Quarter

Hourly Weather History & Observations

Time (AKDT) Temp. Dew Point Humidity Pressure Visibility Wind Dir Wind Speed Gust Speed Precip Events Conditions
12:53 AM 48.0 °F 45.0 °F 89% 30.19 in 10.0 mi West 4.6 mph - N/A   Mostly Cloudy
1:53 AM 48.0 °F 45.0 °F 89% 30.19 in 10.0 mi WNW 3.5 mph - N/A   Mostly Cloudy
2:53 AM 48.2 °F 46.4 °F 93% 30.20 in 10.0 mi West 3.5 mph - N/A   Mostly Cloudy
3:00 AM 48.2 °F 46.4 °F 93% 30.20 in 10.0 mi WSW 3.5 mph - N/A   Overcast
3:17 AM 48.2 °F 46.4 °F 93% 30.20 in 10.0 mi West 4.6 mph - N/A   Overcast
3:24 AM 48.2 °F 46.4 °F 93% 30.20 in 10.0 mi Calm Calm - N/A   Overcast
3:53 AM 48.9 °F 46.0 °F 90% 30.20 in 10.0 mi Calm Calm - N/A   Overcast
4:53 AM 48.0 °F 46.0 °F 93% 30.19 in 10.0 mi Calm Calm - N/A   Overcast
5:53 AM 48.0 °F 45.0 °F 89% 30.19 in 10.0 mi Calm Calm - N/A   Overcast
6:53 AM 48.0 °F 45.0 °F 89% 30.19 in 10.0 mi Calm Calm - N/A   Overcast
7:53 AM 50.0 °F 43.0 °F 77% 30.19 in 10.0 mi South 10.4 mph - N/A   Mostly Cloudy
8:53 AM 50.0 °F 44.1 °F 80% 30.21 in 10.0 mi SSE 11.5 mph - N/A   Overcast
9:53 AM 50.0 °F 44.1 °F 80% 30.20 in 10.0 mi SE 10.4 mph - N/A   Overcast
10:53 AM 51.1 °F 44.1 °F 77% 30.19 in 10.0 mi SSE 12.7 mph - N/A   Overcast
11:53 AM 51.1 °F 44.1 °F 77% 30.19 in 10.0 mi SSE 10.4 mph - N/A   Overcast
12:53 PM 50.0 °F 44.1 °F 80% 30.19 in 10.0 mi SSE 11.5 mph - 0.00 in Rain Light Rain
1:53 PM 50.0 °F 44.1 °F 80% 30.17 in 10.0 mi SE 10.4 mph - 0.00 in   Overcast
2:53 PM 48.9 °F 46.0 °F 90% 30.16 in 6.0 mi SE 10.4 mph - 0.00 in Rain Light Rain
3:06 PM 48.2 °F 46.4 °F 93% 30.15 in 5.0 mi ESE 10.4 mph - 0.01 in Rain Light Rain
3:53 PM 48.9 °F 46.0 °F 90% 30.14 in 5.0 mi ESE 16.1 mph - 0.02 in Rain Light Rain
4:42 PM 50.0 °F 46.4 °F 87% 30.11 in 9.0 mi ESE 16.1 mph - 0.01 in Rain Light Rain
4:53 PM 48.9 °F 46.0 °F 90% 30.11 in 10.0 mi ESE 15.0 mph - 0.01 in Rain Light Rain
5:40 PM 48.2 °F 46.4 °F 93% 30.09 in 2.5 mi ESE 18.4 mph - 0.00 in Rain Light Rain
5:53 PM 48.9 °F 46.9 °F 93% 30.09 in 2.5 mi ESE 18.4 mph - 0.00 in Rain Light Rain
5:56 PM 48.2 °F 46.4 °F 93% 30.08 in 4.0 mi ESE 17.3 mph - 0.00 in Rain Light Rain
6:53 PM 48.9 °F 46.0 °F 90% 30.07 in 4.0 mi ESE 16.1 mph - 0.00 in Rain Light Rain
7:53 PM 48.0 °F 46.0 °F 93% 30.04 in 10.0 mi ESE 17.3 mph - 0.00 in   Overcast
8:40 PM 48.2 °F 46.4 °F 93% 30.03 in 4.0 mi ESE 17.3 mph - 0.00 in   Overcast
8:53 PM 48.0 °F 46.0 °F 93% 30.03 in 4.0 mi ESE 19.6 mph - 0.00 in   Overcast
9:44 PM 48.2 °F 46.4 °F 93% 30.00 in 6.0 mi East 16.1 mph - N/A   Overcast
9:53 PM 48.0 °F 46.9 °F 96% 30.00 in 5.0 mi East 16.1 mph - N/A   Overcast
10:53 PM 48.0 °F 46.9 °F 96% 29.97 in 8.0 mi East 17.3 mph - 0.00 in Rain Light Rain
11:53 PM 48.9 °F 46.9 °F 93% 29.94 in 4.0 mi East 18.4 mph - 0.03 in Rain Light Rain